This is the latest recevied weather packets stored in our database for station/object OK3MS-5. If no packets are shown the sender has not sent any weather packets the latest 10 day(s).
| Time | Temp. | Humidity | Pressure | Rain* | Wind** | Luminosity | Snow |
|---|---|---|---|---|---|---|---|
| 1777644304 | 18.89° C | 37% | 1024.4 hPa | 0 mm | - | 511 W/m² | - |
| 1777644004 | 18.33° C | 38% | 1024.4 hPa | 0 mm | - | 527 W/m² | - |
| 1777643703 | 18.33° C | 38% | 1024.6 hPa | 0 mm | - | 542 W/m² | - |
| 1777643406 | 18.33° C | 37% | 1024.7 hPa | 0 mm | - | 554 W/m² | - |
| 1777643105 | 18.33° C | 38% | 1024.8 hPa | 0 mm | - | 99 W/m² | - |
| 1777642808 | 17.78° C | 38% | 1024.9 hPa | 0 mm | - | 581 W/m² | - |
| 1777642508 | 18.33° C | 39% | 1024.8 hPa | 0 mm | - | 589 W/m² | - |
| 1777642204 | 18.33° C | 39% | 1024.8 hPa | 0 mm | - | 155 W/m² | - |
| 1777641903 | 18.33° C | 39% | 1024.8 hPa | 0 mm | - | 619 W/m² | - |
| 1777641604 | 17.78° C | 39% | 1025 hPa | 0 mm | - | 619 W/m² | - |
| 1777641306 | 18.33° C | 40% | 1025 hPa | 0 mm | - | 624 W/m² | - |
| 1777641004 | 18.33° C | 39% | 1025.1 hPa | 0 mm | - | 642 W/m² | - |
| 1777640705 | 17.78° C | 39% | 1025.2 hPa | 0 mm | - | 645 W/m² | - |
| 1777640404 | 17.78° C | 40% | 1025.4 hPa | 0 mm | - | 668 W/m² | - |
| 1777640104 | 17.78° C | 41% | 1025.4 hPa | 0 mm | - | 671 W/m² | - |
| 1777639807 | 17.22° C | 41% | 1025.5 hPa | 0 mm | - | 160 W/m² | - |
| 1777639505 | 17.22° C | 41% | 1025.5 hPa | 0 mm | - | 694 W/m² | - |
| 1777639206 | 17.78° C | 43% | 1025.5 hPa | 0 mm | - | 723 W/m² | - |
| 1777638903 | 17.78° C | 41% | 1025.5 hPa | 0 mm | - | 734 W/m² | - |
| 1777638604 | 17.78° C | 41% | 1025.7 hPa | 0 mm | - | 714 W/m² | - |
| 1777638303 | 17.22° C | 39% | 1025.9 hPa | 0 mm | - | 721 W/m² | - |
| 1777638003 | 17.22° C | 42% | 1025.9 hPa | 0 mm | - | 722 W/m² | - |
| 1777637703 | 17.22° C | 41% | 1025.8 hPa | 0 mm | - | 731 W/m² | - |
| 1777637404 | 17.22° C | 40% | 1026 hPa | 0 mm | - | 776 W/m² | - |
| 1777637104 | 18.33° C | 40% | 1025.8 hPa | 0 mm | - | 840 W/m² | - |
* Rain latest hour (hover to see other rain measurements)
** Current wind speed in m/s (hover to see current wind gust speed)